sat.trackr.live / text

‹ back to catalog

APSTAR-6C

NORAD 43450 · 2018-041A

PAYLOAD ACTIVE UNKNOWN

§ Identity

Operator
Country
PRC
Launch date
2018-05-03
Launch site
XICLF
Launch vehicle
Mass (kg)
RCS (m²)

Purposes: comms

External: N2YO · Heavens-Above · Gunter

§ Orbital elements

Epoch: 2026-09-12T14:16:52.370976Z

Period
1,436.06 min
Inclination
0.0647°
Eccentricity
0.0001670
Mean motion
1.00274055 rev/d
Perigee alt
35,778.9 km
Apogee alt
35,793.0 km
Semi-major
42,164.1 km
B*
0.0000e+0
RAAN
300.6470°
Arg perigee
283.9166°
Mean anomaly
115.2577°
Rev number
3,068

§ Raw data

APSTAR-6C1 43450U 18041A   26255.59505059 -.00000331  00000+0  00000+0 0  99942 43450   0.0647 300.6470 0001670 283.9166 115.2577  1.00274055 30683

JSON: /api/v1/satellites/43450 · /tle

For live sub-satellite position, see the globe view (requires WebGL).

§ Visibility from observer

Set your observer location to see the next 7 days of passes ≥ 10°. The values pass through the URL so the page stays shareable.

No JS? Fill the form by hand. The geolocation button needs JavaScript.